• In Hungary
  • List of Countries
  • For 7 days
  • Water Temperature
  • Satellite Maps
  • Weather Map
  • News
  • Weather Widgets
  • user-avatar
    Login

    Hourly Weather Zaokskoe

    Today, 21 August, Tuesday

    Time Temperature Precipitation Wind Pressure Humidity
    00:00 +19°C° 0 mm 2 mps 751 mmHg 82%
    01:00 +18°C° 0 mm 2 mps 750 mmHg 82%
    02:00 +18°C° 0 mm 2 mps 750 mmHg 83%
    03:00 +18°C° 0 mm 2 mps 750 mmHg 84%
    04:00 +18°C° 0 mm 2 mps 750 mmHg 84%
    05:00 +18°C° 0 mm 3 mps 749 mmHg 85%
    06:00 +18°C° 0 mm 3 mps 749 mmHg 85%
    07:00 +20°C° 0 mm 4 mps 749 mmHg 78%
    08:00 +22°C° 0 mm 5 mps 748 mmHg 70%
    09:00 +24°C° 0 mm 6 mps 748 mmHg 61%
    10:00 +26°C° 0 mm 7 mps 748 mmHg 57%
    11:00 +27°C° 0 mm 7 mps 747 mmHg 53%
    12:00 +29°C° 0 mm 8 mps 747 mmHg 48%
    13:00 +28°C° 0.4 mm 8 mps 746 mmHg 51%
    14:00 +28°C° 0.4 mm 8 mps 746 mmHg 55%
    15:00 +27°C° 0.4 mm 8 mps 746 mmHg 58%
    16:00 +26°C° 1.8 mm 7 mps 745 mmHg 66%
    17:00 +23°C° 1.8 mm 6 mps 745 mmHg 74%
    18:00 +21°C° 1.8 mm 6 mps 745 mmHg 82%
    19:00 +20°C° 0.8 mm 5 mps 745 mmHg 84%
    20:00 +19°C° 0.8 mm 4 mps 745 mmHg 87%
    21:00 +18°C° 0.8 mm 3 mps 746 mmHg 90%
    22:00 +17°C° 0 mm 3 mps 746 mmHg 89%
    23:00 +16°C° 0 mm 3 mps 746 mmHg 88%

    Tomorrow, 22 August, Wednesday

    Time Temperature Precipitation Wind Pressure Humidity
    00:00 +14°C° 0 mm 3 mps 747 mmHg 87%
    01:00 +13°C° 0 mm 3 mps 747 mmHg 88%
    02:00 +13°C° 0 mm 3 mps 748 mmHg 88%
    03:00 +12°C° 0 mm 3 mps 748 mmHg 89%
    04:00 +11°C° 0 mm 3 mps 749 mmHg 89%
    05:00 +11°C° 0 mm 3 mps 749 mmHg 88%
    06:00 +11°C° 0 mm 3 mps 749 mmHg 88%
    07:00 +12°C° 0 mm 4 mps 749 mmHg 81%
    08:00 +14°C° 0 mm 5 mps 750 mmHg 73%
    09:00 +15°C° 0 mm 5 mps 750 mmHg 66%
    10:00 +16°C° 0 mm 5 mps 750 mmHg 60%
    11:00 +19°C° 0 mm 6 mps 750 mmHg 54%
    12:00 +20°C° 0 mm 6 mps 751 mmHg 48%
    13:00 +20°C° 0 mm 6 mps 751 mmHg 47%
    14:00 +21°C° 0 mm 6 mps 751 mmHg 45%
    15:00 +21°C° 0 mm 6 mps 751 mmHg 44%
    16:00 +20°C° 0 mm 5 mps 752 mmHg 47%
    17:00 +20°C° 0 mm 4 mps 752 mmHg 50%
    18:00 +19°C° 0 mm 4 mps 753 mmHg 53%
    19:00 +18°C° 0 mm 3 mps 753 mmHg 57%
    20:00 +16°C° 0 mm 3 mps 754 mmHg 61%
    21:00 +14°C° 0 mm 3 mps 754 mmHg 64%
    22:00 +13°C° 0 mm 3 mps 755 mmHg 66%
    23:00 +12°C° 0 mm 3 mps 755 mmHg 68%

    Day after tomorrow, 23 August, Thursday

    Time Temperature Precipitation Wind Pressure Humidity
    00:00 +11°C° 0 mm 3 mps 755 mmHg 70%
    01:00 +11°C° 0 mm 3 mps 756 mmHg 72%
    02:00 +10°C° 0 mm 2 mps 756 mmHg 74%
    03:00 +10°C° 0 mm 2 mps 756 mmHg 76%
    04:00 +9°C° 0 mm 2 mps 757 mmHg 77%
    05:00 +9°C° 0 mm 2 mps 757 mmHg 79%
    06:00 +9°C° 0 mm 2 mps 757 mmHg 80%
    07:00 +12°C° 0 mm 2 mps 757 mmHg 72%
    08:00 +14°C° 0 mm 2 mps 758 mmHg 65%
    09:00 +16°C° 0 mm 2 mps 758 mmHg 58%
    10:00 +18°C° 0 mm 2 mps 758 mmHg 52%
    11:00 +19°C° 0 mm 2 mps 758 mmHg 47%
    12:00 +20°C° 0 mm 3 mps 758 mmHg 41%
    13:00 +21°C° 0 mm 3 mps 758 mmHg 40%
    14:00 +21°C° 0 mm 3 mps 757 mmHg 39%
    15:00 +21°C° 0 mm 3 mps 757 mmHg 38%
    16:00 +21°C° 0 mm 3 mps 757 mmHg 42%
    17:00 +20°C° 0 mm 2 mps 757 mmHg 46%
    18:00 +20°C° 0 mm 2 mps 757 mmHg 49%
    19:00 +18°C° 0 mm 2 mps 757 mmHg 54%
    20:00 +16°C° 0 mm 2 mps 757 mmHg 59%
    21:00 +14°C° 0 mm 1 mps 757 mmHg 63%
    22:00 +14°C° 0 mm 2 mps 757 mmHg 65%
    23:00 +13°C° 0 mm 2 mps 758 mmHg 67%

    24 August, Friday

    Time Temperature Precipitation Wind Pressure Humidity
    00:00 +13°C° 0 mm 2 mps 758 mmHg 68%
    01:00 +13°C° 0 mm 2 mps 758 mmHg 70%
    02:00 +12°C° 0 mm 2 mps 758 mmHg 72%
    03:00 +12°C° 0 mm 2 mps 758 mmHg 74%
    04:00 +12°C° 0 mm 2 mps 758 mmHg 75%
    05:00 +12°C° 0 mm 1 mps 758 mmHg 76%
    06:00 +12°C° 0 mm 1 mps 758 mmHg 77%
    07:00 +14°C° 0 mm 1 mps 758 mmHg 70%
    08:00 +16°C° 0 mm 2 mps 758 mmHg 62%
    09:00 +18°C° 0 mm 2 mps 758 mmHg 55%
    10:00 +20°C° 0 mm 2 mps 758 mmHg 51%
    11:00 +21°C° 0 mm 2 mps 757 mmHg 46%
    12:00 +23°C° 0 mm 2 mps 757 mmHg 42%
    13:00 +24°C° 0 mm 2 mps 757 mmHg 41%
    14:00 +24°C° 0 mm 2 mps 757 mmHg 40%
    15:00 +25°C° 0 mm 2 mps 756 mmHg 39%
    16:00 +24°C° 0 mm 2 mps 756 mmHg 43%
    17:00 +24°C° 0 mm 2 mps 756 mmHg 47%
    18:00 +23°C° 0 mm 1 mps 756 mmHg 51%
    19:00 +21°C° 0 mm 1 mps 756 mmHg 55%
    20:00 +19°C° 0 mm 1 mps 756 mmHg 60%
    21:00 +16°C° 0 mm 1 mps 756 mmHg 65%
    22:00 +16°C° 0 mm 1 mps 756 mmHg 66%
    23:00 +15°C° 0 mm 1 mps 756 mmHg 68%

    25 August, Saturday

    Time Temperature Precipitation Wind Pressure Humidity
    00:00 +15°C° 0 mm 1 mps 756 mmHg 69%
    01:00 +14°C° 0 mm 1 mps 756 mmHg 70%
    02:00 +14°C° 0 mm 1 mps 756 mmHg 71%
    03:00 +14°C° 0 mm 1 mps 756 mmHg 72%
    04:00 +13°C° 0 mm 1 mps 756 mmHg 73%
    05:00 +13°C° 0 mm 1 mps 756 mmHg 73%
    06:00 +13°C° 0 mm 1 mps 756 mmHg 74%
    07:00 +16°C° 0 mm 2 mps 757 mmHg 67%
    08:00 +18°C° 0 mm 2 mps 757 mmHg 60%
    09:00 +20°C° 0 mm 2 mps 757 mmHg 53%
    10:00 +23°C° 0 mm 2 mps 757 mmHg 48%
    11:00 +24°C° 0 mm 3 mps 756 mmHg 44%
    12:00 +26°C° 0 mm 3 mps 756 mmHg 40%
    13:00 +26°C° 0 mm 3 mps 756 mmHg 39%
    14:00 +26°C° 0 mm 3 mps 756 mmHg 38%
    15:00 +27°C° 0 mm 3 mps 756 mmHg 37%
    16:00 +26°C° 0 mm 2 mps 755 mmHg 41%
    17:00 +25°C° 0 mm 2 mps 755 mmHg 45%
    18:00 +25°C° 0 mm 2 mps 755 mmHg 50%
    19:00 +23°C° 0 mm 2 mps 755 mmHg 54%
    20:00 +20°C° 0 mm 2 mps 755 mmHg 57%
    21:00 +18°C° 0 mm 2 mps 755 mmHg 61%
    22:00 +17°C° 0 mm 2 mps 755 mmHg 63%
    23:00 +17°C° 0 mm 2 mps 756 mmHg 64%

    26 August, Sunday

    Time Temperature Precipitation Wind Pressure Humidity
    00:00 +16°C° 0 mm 2 mps 756 mmHg 66%
    01:00 +16°C° 0 mm 2 mps 756 mmHg 67%
    02:00 +15°C° 0 mm 2 mps 756 mmHg 69%
    03:00 +15°C° 0 mm 2 mps 756 mmHg 70%
    04:00 +15°C° 0 mm 2 mps 756 mmHg 71%
    05:00 +15°C° 0 mm 2 mps 756 mmHg 72%
    06:00 +14°C° 0 mm 2 mps 756 mmHg 73%
    07:00 +17°C° 0 mm 2 mps 756 mmHg 67%
    08:00 +19°C° 0 mm 2 mps 756 mmHg 61%
    09:00 +21°C° 0 mm 2 mps 757 mmHg 54%
    10:00 +24°C° 0 mm 3 mps 756 mmHg 49%
    11:00 +25°C° 0 mm 3 mps 756 mmHg 44%
    12:00 +27°C° 0 mm 3 mps 756 mmHg 39%
    13:00 +27°C° 0 mm 3 mps 756 mmHg 38%
    14:00 +28°C° 0 mm 3 mps 756 mmHg 37%
    15:00 +28°C° 0 mm 3 mps 756 mmHg 37%
    16:00 +27°C° 0 mm 2 mps 755 mmHg 41%
    17:00 +27°C° 0 mm 2 mps 755 mmHg 45%
    18:00 +26°C° 0 mm 2 mps 755 mmHg 49%
    19:00 +24°C° 0 mm 2 mps 755 mmHg 53%
    20:00 +21°C° 0 mm 2 mps 755 mmHg 57%
    21:00 +19°C° 0 mm 2 mps 755 mmHg 61%
    22:00 +19°C° 0 mm 2 mps 755 mmHg 65%
    23:00 +18°C° 0 mm 2 mps 755 mmHg 69%
    Show more